Time,TemperatureF,DewpointF,PressureIn,WindDirection,WindDirectionDegrees,WindSpeedMPH,WindSpeedGustMPH,Humidity,HourlyPrecipIn,Conditions,Clouds,dailyrainin,SoftwareType,DateUTC
2013-02-27 00:00:00,19.0,18.0,-100.00,West,278,18.0,32.0,96,-99.99,,,-99.99,,2013-02-27 08:00:00,
2013-02-27 01:00:00,20.0,19.0,-100.00,SW,214,18.0,30.0,96,-99.99,,,-99.99,,2013-02-27 09:00:00,
2013-02-27 02:00:00,20.0,19.0,-100.00,SW,216,20.0,30.0,96,-99.99,,,-99.99,,2013-02-27 10:00:00,
2013-02-27 03:00:00,21.0,20.0,-100.00,SSW,213,18.0,27.0,96,-99.99,,,-99.99,,2013-02-27 11:00:00,
2013-02-27 03:52:00,21.0,20.0,-100.00,SSW,213,18.0,27.0,96,-99.99,,,-99.99,,2013-02-27 11:52:00,
2013-02-27 04:00:00,20.0,19.0,-100.00,SSW,196,18.0,30.0,96,-99.99,,,-99.99,,2013-02-27 12:00:00,
2013-02-27 05:00:00,18.0,17.0,-100.00,SSW,210,20.0,31.0,96,-99.99,,,-99.99,,2013-02-27 13:00:00,
2013-02-27 06:00:00,19.0,18.0,-100.00,West,262,10.0,27.0,96,-99.99,,,-99.99,,2013-02-27 14:00:00,
2013-02-27 07:00:00,17.0,16.0,-100.00,South,177,8.0,18.0,96,-99.99,,,-99.99,,2013-02-27 15:00:00,
2013-02-27 08:00:00,18.0,17.0,-100.00,SW,227,13.0,25.0,95,-99.99,,,-99.99,,2013-02-27 16:00:00,
2013-02-27 09:00:00,22.0,21.0,-100.00,West,266,17.0,30.0,95,-99.99,,,-99.99,,2013-02-27 17:00:00,
2013-02-27 10:00:00,25.0,24.0,-100.00,East,94,7.0,18.0,95,-99.99,,,-99.99,,2013-02-27 18:00:00,
2013-02-27 11:00:00,26.0,26.0,-100.00,SE,127,8.0,16.0,98,-99.99,,,-99.99,,2013-02-27 19:00:00,
2013-02-27 12:00:00,29.0,29.0,-100.00,SSW,210,7.0,15.0,99,-99.99,,,-99.99,,2013-02-27 20:00:00,
2013-02-27 13:00:00,33.0,33.0,-100.00,SE,132,7.0,15.0,99,-99.99,,,-99.99,,2013-02-27 21:00:00,
2013-02-27 14:00:00,29.0,29.0,-100.00,WSW,254,8.0,15.0,100,-99.99,,,-99.99,,2013-02-27 22:00:00,
2013-02-27 15:00:00,30.0,30.0,-100.00,SSW,196,8.0,14.0,99,-99.99,,,-99.99,,2013-02-27 23:00:00,
2013-02-27 16:00:00,27.0,27.0,-100.00,SW,232,12.0,20.0,99,-99.99,,,-99.99,,2013-02-28 00:00:00,
2013-02-27 17:00:00,25.0,25.0,-100.00,SSW,207,6.0,16.0,98,-99.99,,,-99.99,,2013-02-28 01:00:00,
2013-02-27 18:00:00,23.0,22.0,-100.00,West,269,10.0,18.0,97,-99.99,,,-99.99,,2013-02-28 02:00:00,
2013-02-27 19:00:00,22.0,22.0,-100.00,West,269,10.0,18.0,98,-99.99,,,-99.99,,2013-02-28 03:00:00,
2013-02-27 20:00:00,22.0,22.0,-100.00,NNE,28,3.0,8.0,98,-99.99,,,-99.99,,2013-02-28 04:00:00,
2013-02-27 21:00:00,23.0,23.0,-100.00,NW,318,3.0,10.0,98,-99.99,,,-99.99,,2013-02-28 05:00:00,
2013-02-27 22:00:00,23.0,22.0,-100.00,East,88,3.0,6.0,97,-99.99,,,-99.99,,2013-02-28 06:00:00,
2013-02-27 23:00:00,23.0,23.0,-100.00,WSW,251,2.0,3.0,98,-99.99,,,-99.99,,2013-02-28 07:00:00,